WJA221 CYEG-CYYC

Flight info

Callsign WJA221
Flight time 0h 33m
Altitude 26000
Route DCT OLIMI Q814 AMUNO/N0399F250 Q814 ADVOX ADVOX9
Aircraft B738/M-SDE2E3FGHIRWXY/LB1

Departure

Time 2026-04-29 01:53
Airport Edmonton International Airport (CYEG)

Arrival

Time 2026-04-29 02:27
Airport Calgary International Airport (CYYC)
Time Latitude Longitude Altitude Speed Heading
2026-04-29 01:38 53.30539 -113.58350 2383 ft 0 kts 39°
2026-04-29 01:44 53.30539 -113.58351 2383 ft 0 kts 39°
2026-04-29 01:45 53.30539 -113.58350 2383 ft 0 kts 39°
2026-04-29 01:46 53.30538 -113.58352 2383 ft 2 kts 39°
2026-04-29 01:47 53.30526 -113.58370 2385 ft 2 kts 39°
2026-04-29 01:47 53.30513 -113.58387 2388 ft 2 kts 38°
2026-04-29 01:47 53.30504 -113.58398 2385 ft 2 kts 22°
2026-04-29 01:47 53.30488 -113.58398 2386 ft 1 kts 311°
2026-04-29 01:48 53.30486 -113.58394 2384 ft 0 kts 308°
2026-04-29 01:49 53.30499 -113.58465 2383 ft 13 kts 285°
2026-04-29 01:49 53.30548 -113.58594 2383 ft 13 kts 311°
2026-04-29 01:50 53.30594 -113.58717 2387 ft 13 kts 271°
2026-04-29 01:50 53.30545 -113.58833 2383 ft 12 kts 224°
2026-04-29 01:50 53.30549 -113.58960 2387 ft 12 kts 307°
2026-04-29 01:50 53.30607 -113.59061 2387 ft 12 kts 317°
2026-04-29 01:51 53.30665 -113.59155 2386 ft 11 kts 316°
2026-04-29 01:51 53.30721 -113.59246 2387 ft 11 kts 316°
2026-04-29 01:51 53.30776 -113.59336 2383 ft 11 kts 316°
2026-04-29 01:51 53.30829 -113.59423 2383 ft 11 kts 315°
2026-04-29 01:52 53.30849 -113.59455 2386 ft 0 kts 315°
2026-04-29 01:52 53.30856 -113.59467 2383 ft 5 kts 315°
2026-04-29 01:52 53.30915 -113.59550 2384 ft 16 kts 346°
2026-04-29 01:53 53.31111 -113.59360 2387 ft 69 kts 35°
2026-04-29 01:53 53.31733 -113.58636 2383 ft 146 kts 36°
2026-04-29 01:53 53.32725 -113.57458 2633 ft 193 kts 37°
2026-04-29 01:53 53.33807 -113.56055 3527 ft 209 kts 38°
2026-04-29 01:54 53.34963 -113.54607 3884 ft 202 kts 32°
2026-04-29 01:54 53.36180 -113.53489 4090 ft 203 kts 28°
2026-04-29 01:54 53.37449 -113.52272 4384 ft 219 kts 32°
2026-04-29 01:54 53.38833 -113.50840 4312 ft 241 kts 31°
2026-04-29 01:55 53.40250 -113.49366 4626 ft 235 kts 28°
2026-04-29 01:55 53.41698 -113.48628 5275 ft 213 kts 358°
2026-04-29 01:55 53.43086 -113.49355 5496 ft 212 kts 326°
2026-04-29 01:55 53.44126 -113.51286 5653 ft 241 kts 292°
2026-04-29 01:56 53.44248 -113.54127 6288 ft 255 kts 255°
2026-04-29 01:56 53.43331 -113.56698 7053 ft 264 kts 228°
2026-04-29 01:56 53.42018 -113.58891 7843 ft 270 kts 227°
2026-04-29 01:56 53.40660 -113.61105 8621 ft 275 kts 228°
2026-04-29 01:57 53.39472 -113.63593 9398 ft 273 kts 248°
2026-04-29 01:57 53.38695 -113.66485 10231 ft 273 kts 253°
2026-04-29 01:57 53.37914 -113.69414 10951 ft 283 kts 242°
2026-04-29 01:57 53.36424 -113.71799 11211 ft 317 kts 212°
2026-04-29 01:58 53.34330 -113.73386 11432 ft 343 kts 205°
2026-04-29 01:58 53.32037 -113.74910 11692 ft 364 kts 204°
2026-04-29 01:58 53.29653 -113.76480 12315 ft 371 kts 204°
2026-04-29 01:58 53.27251 -113.78099 13119 ft 373 kts 205°
2026-04-29 01:59 53.24844 -113.79767 13922 ft 376 kts 205°
2026-04-29 01:59 53.22424 -113.81479 14608 ft 379 kts 206°
2026-04-29 01:59 53.19989 -113.83224 15290 ft 383 kts 206°
2026-04-29 01:59 53.17534 -113.84997 15983 ft 386 kts 206°
2026-04-29 02:00 53.15062 -113.86787 16662 ft 389 kts 206°
2026-04-29 02:00 53.12567 -113.88593 17334 ft 393 kts 206°
2026-04-29 02:00 53.10051 -113.90414 18011 ft 396 kts 206°
2026-04-29 02:00 53.07510 -113.92250 18640 ft 400 kts 206°
2026-04-29 02:01 53.04947 -113.94100 19188 ft 404 kts 206°
2026-04-29 02:01 53.02357 -113.95967 19720 ft 408 kts 206°
2026-04-29 02:01 52.99739 -113.97850 20237 ft 412 kts 206°
2026-04-29 02:01 52.97097 -113.99749 20757 ft 416 kts 206°
2026-04-29 02:02 52.94426 -114.01665 21272 ft 420 kts 206°
2026-04-29 02:02 52.91766 -114.03571 21769 ft 424 kts 206°
2026-04-29 02:02 52.89046 -114.05518 22264 ft 428 kts 206°
2026-04-29 02:02 52.86266 -114.07506 22770 ft 432 kts 206°
2026-04-29 02:03 52.83531 -114.09458 23250 ft 436 kts 206°
2026-04-29 02:03 52.80684 -114.11426 23715 ft 440 kts 203°
2026-04-29 02:03 52.77780 -114.13121 24080 ft 444 kts 201°
2026-04-29 02:03 52.74852 -114.14709 24123 ft 442 kts 200°
2026-04-29 02:04 52.71916 -114.16257 24148 ft 444 kts 199°
2026-04-29 02:04 52.68964 -114.17811 24148 ft 446 kts 200°
2026-04-29 02:04 52.66012 -114.19375 24144 ft 445 kts 200°
2026-04-29 02:04 52.63113 -114.20924 24143 ft 444 kts 200°
2026-04-29 02:05 52.60183 -114.22501 24148 ft 443 kts 200°
2026-04-29 02:05 52.57257 -114.24080 24138 ft 442 kts 200°
2026-04-29 02:05 52.54335 -114.25658 24141 ft 442 kts 200°
2026-04-29 02:05 52.51413 -114.27236 24132 ft 443 kts 200°
2026-04-29 02:06 52.48478 -114.28819 24143 ft 445 kts 200°
2026-04-29 02:06 52.45540 -114.30400 24129 ft 444 kts 200°
2026-04-29 02:06 52.42608 -114.31975 24129 ft 443 kts 200°
2026-04-29 02:06 52.39677 -114.33547 24126 ft 443 kts 200°
2026-04-29 02:07 52.36748 -114.35115 24127 ft 443 kts 200°
2026-04-29 02:07 52.33823 -114.36680 24126 ft 443 kts 200°
2026-04-29 02:07 52.30894 -114.38244 24122 ft 442 kts 200°
2026-04-29 02:07 52.27969 -114.39804 24131 ft 442 kts 200°
2026-04-29 02:08 52.25045 -114.41361 24127 ft 442 kts 200°
2026-04-29 02:08 52.22117 -114.42919 24121 ft 442 kts 200°
2026-04-29 02:08 52.19193 -114.44472 24122 ft 442 kts 200°
2026-04-29 02:08 52.16264 -114.46026 24125 ft 443 kts 200°
2026-04-29 02:09 52.13333 -114.47579 24121 ft 443 kts 200°
2026-04-29 02:09 52.10404 -114.49129 24121 ft 443 kts 200°
2026-04-29 02:09 52.07470 -114.50678 24125 ft 443 kts 200°
2026-04-29 02:09 52.04540 -114.52224 24120 ft 443 kts 200°
2026-04-29 02:10 52.01604 -114.53770 24114 ft 443 kts 200°
2026-04-29 02:10 51.98672 -114.55313 24115 ft 443 kts 200°
2026-04-29 02:10 51.95736 -114.56856 24113 ft 443 kts 200°
2026-04-29 02:10 51.92802 -114.58397 24113 ft 443 kts 200°
2026-04-29 02:11 51.89866 -114.59936 24113 ft 443 kts 200°
2026-04-29 02:11 51.86931 -114.61473 24111 ft 443 kts 200°
2026-04-29 02:11 51.83999 -114.63007 24109 ft 443 kts 200°
2026-04-29 02:11 51.81066 -114.64539 24107 ft 443 kts 200°
2026-04-29 02:12 51.78133 -114.66070 24111 ft 443 kts 200°
2026-04-29 02:12 51.75230 -114.67580 23945 ft 433 kts 200°
2026-04-29 02:12 51.72361 -114.69011 23442 ft 432 kts 195°
2026-04-29 02:12 51.69363 -114.69337 22721 ft 436 kts 174°
2026-04-29 02:13 51.66430 -114.68160 22123 ft 435 kts 157°
2026-04-29 02:13 51.63869 -114.65756 21600 ft 430 kts 143°
2026-04-29 02:13 51.61433 -114.62913 21123 ft 425 kts 143°
2026-04-29 02:13 51.59075 -114.60192 20619 ft 421 kts 144°
2026-04-29 02:14 51.56664 -114.57452 20116 ft 417 kts 143°
2026-04-29 02:14 51.54359 -114.54762 19647 ft 413 kts 143°
2026-04-29 02:14 51.52055 -114.52047 19190 ft 409 kts 143°
2026-04-29 02:14 51.49783 -114.49383 18641 ft 399 kts 143°
2026-04-29 02:15 51.47558 -114.46764 17774 ft 395 kts 141°
2026-04-29 02:15 51.45517 -114.43886 17327 ft 381 kts 135°
2026-04-29 02:15 51.43690 -114.40974 17197 ft 361 kts 133°
2026-04-29 02:15 51.41960 -114.38146 16569 ft 356 kts 133°
2026-04-29 02:16 51.40190 -114.35273 15395 ft 369 kts 134°
2026-04-29 02:16 51.38346 -114.32326 14265 ft 379 kts 134°
2026-04-29 02:16 51.36456 -114.29347 13292 ft 382 kts 135°
2026-04-29 02:16 51.34577 -114.26410 12843 ft 369 kts 135°
2026-04-29 02:17 51.32790 -114.23630 12704 ft 349 kts 135°
2026-04-29 02:17 51.31096 -114.20999 12555 ft 331 kts 135°
2026-04-29 02:17 51.29481 -114.18515 12366 ft 316 kts 139°
2026-04-29 02:17 51.27606 -114.16768 11872 ft 312 kts 163°
2026-04-29 02:18 51.25490 -114.16259 11386 ft 306 kts 181°
2026-04-29 02:18 51.23373 -114.16246 10943 ft 303 kts 182°
2026-04-29 02:18 51.21278 -114.16281 10485 ft 300 kts 183°
2026-04-29 02:18 51.19199 -114.16314 10058 ft 297 kts 182°
2026-04-29 02:19 51.17146 -114.16336 9586 ft 294 kts 182°
2026-04-29 02:19 51.15110 -114.16348 9119 ft 291 kts 182°
2026-04-29 02:19 51.13096 -114.16353 8625 ft 289 kts 181°
2026-04-29 02:19 51.11077 -114.16355 8302 ft 288 kts 181°
2026-04-29 02:20 51.09114 -114.16353 8242 ft 277 kts 181°
2026-04-29 02:20 51.07216 -114.16351 8150 ft 268 kts 181°
2026-04-29 02:20 51.05382 -114.16349 8069 ft 259 kts 181°
2026-04-29 02:20 51.03616 -114.16345 7849 ft 251 kts 181°
2026-04-29 02:21 51.01866 -114.16342 7378 ft 252 kts 181°
2026-04-29 02:21 51.00096 -114.16339 6789 ft 257 kts 181°
2026-04-29 02:21 50.98303 -114.16336 6311 ft 256 kts 180°
2026-04-29 02:21 50.96539 -114.16328 6187 ft 252 kts 178°
2026-04-29 02:22 50.94854 -114.15612 6029 ft 251 kts 148°
2026-04-29 02:22 50.93681 -114.13726 6001 ft 235 kts 116°
2026-04-29 02:22 50.93331 -114.11349 6000 ft 212 kts 87°
2026-04-29 02:22 50.93395 -114.09101 5989 ft 197 kts 84°
2026-04-29 02:23 50.93664 -114.07021 5997 ft 194 kts 57°
2026-04-29 02:23 50.94606 -114.05439 6028 ft 204 kts 37°
2026-04-29 02:23 50.95738 -114.04052 6025 ft 206 kts 36°
2026-04-29 02:23 50.96916 -114.02784 6001 ft 204 kts 21°
2026-04-29 02:24 50.98290 -114.02391 5867 ft 200 kts
2026-04-29 02:24 50.99668 -114.02194 5589 ft 196 kts
2026-04-29 02:24 51.00968 -114.02142 5347 ft 183 kts
2026-04-29 02:25 51.03381 -114.02142 4882 ft 164 kts
2026-04-29 02:25 51.04488 -114.02145 4695 ft 159 kts
2026-04-29 02:25 51.05611 -114.02164 4461 ft 165 kts
2026-04-29 02:25 51.06742 -114.02143 4171 ft 163 kts
2026-04-29 02:26 51.07879 -114.02184 3946 ft 163 kts
2026-04-29 02:26 51.08994 -114.02163 3736 ft 159 kts
2026-04-29 02:26 51.10090 -114.02132 3558 ft 152 kts
2026-04-29 02:26 51.11033 -114.02136 3556 ft 115 kts 359°
2026-04-29 02:27 51.11709 -114.02134 3555 ft 84 kts
2026-04-29 02:27 51.12203 -114.02125 3560 ft 41 kts
2026-04-29 02:27 51.12376 -114.02000 3558 ft 25 kts 28°
2026-04-29 02:27 51.12521 -114.01871 3560 ft 23 kts 30°
2026-04-29 02:28 51.12630 -114.01799 3561 ft 15 kts
2026-04-29 02:28 51.12735 -114.01793 3559 ft 15 kts 358°
2026-04-29 02:28 51.12846 -114.01792 3562 ft 16 kts 16°
2026-04-29 02:28 51.12936 -114.01690 3559 ft 16 kts 13°
2026-04-29 02:29 51.13044 -114.01682 3560 ft 15 kts
2026-04-29 02:29 51.13141 -114.01650 3564 ft 15 kts 54°
2026-04-29 02:29 51.13155 -114.01497 3565 ft 14 kts 91°
2026-04-29 02:29 51.13186 -114.01359 3560 ft 13 kts 42°
2026-04-29 02:30 51.13227 -114.01305 3565 ft 0 kts 45°